CW9244 Weather Reports


Display with metric or nautical units.
time (UTC)temp
F
wind
direction
speed
MPH
gust
MPH
rain 1hr
in
rain 24hr
in
rain mn
in
humidity
%
barometer
mb
20260509083723 51 247 0.0 0.0 0.00 0.00 0.00 87 1029.0
20260509082725 51 247 0.0 0.0 0.00 0.00 0.00 87 1029.1
20260509081725 51 247 0.0 0.0 0.00 0.00 0.00 87 1029.1
20260509080726 51 247 0.0 0.0 0.00 0.00 0.00 86 1029.2
20260509074825 51 247 0.0 0.0 0.00 0.00 0.00 87 1028.8
20260509073826 51 247 0.0 0.0 0.00 0.00 0.00 86 1028.7
20260509072923 51 247 0.0 0.0 0.00 0.00 0.00 86 1028.7
20260509071926 51 247 0.0 0.0 0.00 0.00 0.00 85 1028.6
20260509070927 51 247 0.0 0.0 0.00 0.00 0.00 85 1029.0
20260509065926 51 247 0.0 0.0 0.00 0.00 0.00 84 1028.9
20260509064926 51 247 0.0 0.0 0.00 0.00 0.00 84 1029.2
20260509063926 51 247 0.0 0.0 0.00 0.00 0.00 83 1029.4
20260509062925 51 247 0.0 0.0 0.00 0.00 0.00 83 1029.7
20260509061927 51 247 0.0 0.0 0.00 0.00 0.00 83 1029.5
20260509060925 50 247 0.0 0.0 0.00 0.00 0.00 83 1029.4
20260509055024 50 247 0.0 0.0 0.00 0.00 0.00 84 1029.6
20260509054024 50 247 0.0 0.0 0.00 0.00 0.00 84 1029.4
20260509052025 49 247 0.0 0.0 0.00 0.00 0.00 84 1029.2
20260509051026 49 247 0.0 0.0 0.00 0.00 0.00 83 1029.3
20260509050025 49 247 0.0 0.0 0.00 0.00 0.00 82 1029.3
20260509045123 49 247 0.0 0.0 0.00 0.00 0.00 81 1029.4
20260509044125 50 247 0.0 0.0 0.00 0.00 0.00 79 1029.3
20260509043125 51 247 0.0 0.0 0.00 0.00 0.00 78 1029.3
20260509042224 51 247 0.0 0.0 0.00 0.00 0.00 77 1029.3
20260509041227 51 247 0.0 0.0 0.00 0.00 0.00 77 1029.6
20260509040324 52 247 0.0 0.0 0.00 0.00 0.00 77 1029.4
20260509035335 52 247 0.0 0.0 0.00 0.00 0.00 78 1029.5
20260509034337 52 247 0.0 0.0 0.00 0.00 0.00 78 1029.6
20260509033338 52 247 0.0 0.0 0.00 0.00 0.00 78 1029.7
20260509031437 51 247 0.0 0.0 0.00 0.00 0.00 78 1029.8
20260509025538 51 247 0.0 0.0 0.00 0.00 0.00 79 1029.8
20260509024637 51 247 0.0 0.0 0.00 0.00 0.00 79 1029.5
20260509023639 51 247 0.0 0.0 0.00 0.00 0.00 78 1029.7
20260509022638 51 247 0.0 0.0 0.00 0.00 0.00 78 1029.7
20260509021639 51 247 0.0 0.0 0.00 0.00 0.00 78 1029.6
20260509020638 51 247 0.0 0.0 0.00 0.00 0.00 77 1029.6
20260509015638 51 247 0.0 0.0 0.00 0.00 0.00 77 1029.5
20260509013735 51 247 0.0 0.0 0.00 0.00 0.00 76 1029.2
20260509012738 51 247 0.0 0.0 0.00 0.00 0.00 75 1029.3
20260509011835 51 247 0.0 0.0 0.00 0.00 0.00 73 1029.2
20260509010837 51 247 0.0 0.0 0.00 0.00 0.00 73 1029.0
20260509005838 51 247 0.0 0.0 0.00 0.00 0.00 71 1028.9
20260509004838 52 247 0.0 0.0 0.00 0.00 0.00 70 1028.9
20260509003837 52 247 0.0 0.0 0.00 0.00 0.00 68 1028.6
20260509002838 53 247 0.0 0.0 0.00 0.00 0.00 66 1028.6
20260509000838 55 247 0.0 0.0 0.00 0.00 0.00 64 1028.5
20260508235838 56 247 0.0 0.0 0.00 0.00 0.00 63 1028.3
20260508233840 57 315 0.0 0.0 0.00 0.00 0.00 58 1028.2
20260508232936 57 315 0.0 0.0 0.00 0.00 0.00 54 1027.9
20260508231938 57 315 0.0 1.0 0.00 0.00 0.00 52 1027.7
20260508230938 57 292 0.0 1.0 0.00 0.00 0.00 51 1027.7
20260508225938 58 277 2.0 3.0 0.00 0.00 0.00 51 1027.7
20260508224938 58 292 2.0 3.0 0.00 0.00 0.00 51 1027.7
20260508223937 59 316 1.0 2.0 0.00 0.00 0.00 51 1027.7
20260508222938 59 256 0.0 1.0 0.00 0.00 0.00 50 1027.6
20260508220937 59 237 3.0 7.0 0.00 0.00 0.00 52 1027.7
20260508215936 58 292 1.0 2.0 0.00 0.00 0.00 53 1027.8
20260508214937 58 270 0.0 0.0 0.00 0.00 0.00 53 1027.7
20260508214036 57 289 1.0 2.0 0.00 0.00 0.00 53 1027.7
20260508213038 57 292 3.0 3.0 0.00 0.00 0.00 53 1027.9
20260508212038 57 292 0.0 1.0 0.00 0.00 0.00 52 1027.9
20260508211054 58 280 2.0 5.0 0.00 0.00 0.00 52 1027.9
20260508210138 58 281 4.0 7.0 0.00 0.00 0.00 52 1027.8
20260508205236 58 324 1.0 3.0 0.00 0.00 0.00 52 1027.9
20260508203237 58 296 3.0 7.0 0.00 0.00 0.00 51 1027.7
20260508202336 59 290 4.0 8.0 0.00 0.00 0.00 50 1027.5
20260508201335 59 313 1.0 5.0 0.00 0.00 0.00 49 1027.5
20260508200338 58 297 3.0 5.0 0.00 0.00 0.00 50 1027.6
20260508194438 58 299 7.0 11.0 0.00 0.00 0.00 48 1027.9
20260508193536 58 276 3.0 6.0 0.00 0.00 0.00 47 1027.6
20260508192535 59 337 4.0 7.0 0.00 0.00 0.00 43 1027.4
20260508191539 61 299 2.0 5.0 0.00 0.00 0.00 40 1027.2
20260508185639 60 275 5.0 10.0 0.00 0.00 0.00 38 1027.2
20260508183637 60 283 3.0 6.0 0.00 0.00 0.00 39 1027.2
20260508181638 62 280 3.0 9.0 0.00 0.00 0.00 38 1027.0
20260508180737 62 284 3.0 4.0 0.00 0.00 0.00 38 1026.9
20260508175736 62 254 3.0 6.0 0.00 0.00 0.00 39 1027.0
20260508173737 61 308 4.0 7.0 0.00 0.00 0.00 40 1027.2
20260508171836 61 289 4.0 7.0 0.00 0.00 0.00 40 1027.3
20260508170837 61 299 1.0 4.0 0.00 0.00 0.00 39 1027.3
20260508165837 62 291 4.0 6.0 0.00 0.00 0.00 39 1027.2
20260508164838 60 287 1.0 5.0 0.00 0.00 0.00 40 1027.3
20260508163837 61 330 3.0 7.0 0.00 0.00 0.00 38 1027.4
20260508162936 61 319 7.0 10.0 0.00 0.00 0.00 38 1027.7
20260508161937 60 291 2.0 4.0 0.00 0.00 0.00 38 1027.7
20260508161035 60 237 3.0 6.0 0.00 0.00 0.00 39 1027.7
20260508155040 58 300 5.0 7.0 0.00 0.00 0.00 37 1027.9
20260508154038 58 290 3.0 5.0 0.00 0.00 0.00 38 1028.0
20260508153040 59 299 4.0 9.0 0.00 0.00 0.00 39 1028.2
20260508152037 58 278 3.0 7.0 0.00 0.00 0.00 42 1028.1
20260508151037 57 267 2.0 5.0 0.00 0.00 0.00 44 1028.3
20260508150136 58 306 6.0 10.0 0.00 0.00 0.00 44 1028.2
20260508145235 58 259 2.0 4.0 0.00 0.00 0.00 45 1028.2
20260508144236 57 248 1.0 3.0 0.00 0.00 0.00 43 1028.1
20260508143238 58 305 3.0 5.0 0.00 0.00 0.00 49 1028.1
20260508142337 57 337 2.0 5.0 0.00 0.00 0.00 53 1028.1
20260508141338 56 335 3.0 7.0 0.00 0.00 0.00 54 1028.0
20260508140339 55 299 2.0 5.0 0.00 0.00 0.00 57 1028.2
20260508134437 54 333 3.0 4.0 0.00 0.00 0.00 60 1028.3
20260508134340 54 324 1.0 3.0 0.00 0.00 0.00 60 1028.2
20260508133339 54 312 3.0 7.0 0.00 0.00 0.00 60 1028.5
20260508130536 53 308 5.0 9.0 0.00 0.00 0.00 61 1028.6
20260508125538 53 284 2.0 6.0 0.00 0.00 0.00 61 1028.6
20260508124539 52 297 4.0 5.0 0.00 0.00 0.00 63 1028.6
20260508123637 52 301 2.0 4.0 0.00 0.00 0.00 64 1028.6
20260508122639 52 294 4.0 6.0 0.00 0.00 0.00 64 1028.6
20260508120637 51 270 2.0 3.0 0.00 0.00 0.00 65 1028.4
20260508115636 51 277 1.0 2.0 0.00 0.00 0.00 67 1028.5
20260508112735 49 292 3.0 6.0 0.00 0.00 0.00 74 1028.2
20260508111740 48 292 2.0 2.0 0.00 0.00 0.00 76 1028.3
20260508110735 47 292 2.0 3.0 0.00 0.01 0.00 78 1028.2
20260508105737 47 292 2.0 2.0 0.00 0.01 0.00 79 1027.9
20260508104836 47 292 2.0 3.0 0.00 0.01 0.00 77 1028.0
20260508103838 47 292 0.0 1.0 0.00 0.01 0.00 76 1027.9
20260508102838 47 292 2.0 3.0 0.00 0.01 0.00 77 1027.6
20260508100936 47 286 0.0 2.0 0.00 0.02 0.00 79 1027.6
20260508095937 47 315 2.0 3.0 0.00 0.02 0.00 80 1027.3
20260508095036 47 292 2.0 3.0 0.00 0.02 0.00 78 1027.4
20260508094136 47 292 2.0 3.0 0.00 0.02 0.00 77 1027.4
20260508091138 47 303 2.0 3.0 0.00 0.02 0.00 74 1027.0
20260508090137 47 298 1.0 3.0 0.00 0.02 0.00 74 1026.9
20260508085138 47 315 1.0 3.0 0.00 0.02 0.00 73 1027.2